Location: Hanover
(52.3667°N, 9.7167°E)
Time: 03:13:07
(UTC+02:00)

ARIANE 6 FM1 Upper Stage - Pass Details

Date: 23 September 2024
Orbit: 564 x 594 km, 62.0° (Epoch: 06 October)

Event Time Altitude Azimuth Distance (km) Brightness Sun altitude
Rises 20:28:06 0° 206° (SSW) 2,775 6.4 -11.7°
Reaches altitude 10° 20:30:23 10° 200° (SSW) 1,886 5.4 -12.0°
Maximum altitude 20:34:25 42° 129° (SE) 831 3.1 -12.6°
Drops below altitude 10° 20:38:31 10° 58° (ENE) 1,918 5.0 -13.2°
Enters shadow 20:38:43 - 57° (ENE) 1,992 5.1 -13.3°
